Time,TemperatureF,DewpointF,PressureIn,WindDirection,WindDirectionDegrees,WindSpeedMPH,WindSpeedGustMPH,Humidity,HourlyPrecipIn,Conditions,Clouds,dailyrainin,SoftwareType,DateUTC
2013-01-20 00:01:00,40.1,35.4,30.26,NNW,327,0.0,0.0,83,0.00,,---,0.00,VWS V14.01,2013-01-20 08:01:00,
2013-01-20 00:07:00,39.9,35.5,30.26,NNW,327,0.0,0.0,84,0.00,,---,0.00,VWS V14.01,2013-01-20 08:07:00,
2013-01-20 00:12:00,39.8,35.4,30.26,NNW,327,0.0,0.0,84,0.00,,---,0.00,VWS V14.01,2013-01-20 08:12:00,
2013-01-20 00:17:00,39.6,35.2,30.26,NNW,327,0.0,0.0,84,0.00,,---,0.00,VWS V14.01,2013-01-20 08:17:00,
2013-01-20 00:23:00,39.4,35.3,30.26,NNW,327,0.0,0.0,85,0.00,,---,0.00,VWS V14.01,2013-01-20 08:23:00,
2013-01-20 00:28:00,39.3,34.9,30.26,NNW,327,0.0,0.0,84,0.00,,---,0.00,VWS V14.01,2013-01-20 08:28:00,
2013-01-20 00:33:00,39.1,35.0,30.26,NNW,327,0.0,0.0,85,0.00,,---,0.00,VWS V14.01,2013-01-20 08:33:00,
2013-01-20 00:39:00,38.9,34.8,30.26,NNW,327,0.0,0.0,85,0.00,,---,0.00,VWS V14.01,2013-01-20 08:39:00,
2013-01-20 00:45:00,38.8,35.0,30.26,NNW,327,0.0,0.0,86,0.00,,---,0.00,VWS V14.01,2013-01-20 08:45:00,
2013-01-20 00:51:00,38.7,34.9,30.26,NNW,327,2.0,2.0,86,0.00,,---,0.00,VWS V14.01,2013-01-20 08:51:00,
2013-01-20 00:56:00,38.7,35.2,30.26,NNW,327,2.0,2.0,87,0.00,,---,0.00,VWS V14.01,2013-01-20 08:56:00,
2013-01-20 01:01:00,38.8,35.0,30.26,NNW,327,0.0,0.0,86,0.00,,---,0.00,VWS V14.01,2013-01-20 09:01:00,
2013-01-20 01:07:00,38.8,35.0,30.26,NNW,328,0.0,0.0,86,0.00,,---,0.00,VWS V14.01,2013-01-20 09:07:00,
2013-01-20 01:13:00,38.7,35.2,30.26,NNW,327,0.0,0.0,87,0.00,,---,0.00,VWS V14.01,2013-01-20 09:13:00,
2013-01-20 01:18:00,38.6,34.8,30.26,NNW,327,0.0,0.0,86,0.00,,---,0.00,VWS V14.01,2013-01-20 09:18:00,
2013-01-20 01:24:00,38.5,35.0,30.26,NNW,328,0.0,0.0,87,0.00,,---,0.00,VWS V14.01,2013-01-20 09:24:00,
2013-01-20 01:29:00,38.4,34.9,30.26,NNW,327,0.0,0.0,87,0.00,,---,0.00,VWS V14.01,2013-01-20 09:29:00,
2013-01-20 01:34:00,38.3,34.8,30.26,NNW,327,0.0,0.0,87,0.00,,---,0.00,VWS V14.01,2013-01-20 09:34:00,
2013-01-20 01:40:00,38.2,35.0,30.26,NNW,327,0.0,0.0,88,0.00,,---,0.00,VWS V14.01,2013-01-20 09:40:00,
2013-01-20 01:45:00,38.2,34.7,30.26,NNW,327,2.0,2.0,87,0.00,,---,0.00,VWS V14.01,2013-01-20 09:45:00,
2013-01-20 01:50:00,38.1,34.6,30.26,NNW,327,0.0,0.0,87,0.00,,---,0.00,VWS V14.01,2013-01-20 09:50:00,
2013-01-20 01:56:00,38.0,34.8,30.27,NNW,327,0.0,0.0,88,0.00,,---,0.00,VWS V14.01,2013-01-20 09:56:00,
2013-01-20 02:01:00,37.9,34.7,30.26,NNW,327,0.0,0.0,88,0.00,,---,0.00,VWS V14.01,2013-01-20 10:01:00,
2013-01-20 02:07:00,37.8,34.6,30.26,NNW,327,2.0,2.0,88,0.00,,---,0.00,VWS V14.01,2013-01-20 10:07:00,
2013-01-20 02:13:00,37.8,34.6,30.27,NNW,328,0.0,0.0,88,0.00,,---,0.00,VWS V14.01,2013-01-20 10:13:00,
2013-01-20 02:19:00,37.7,34.5,30.27,NNW,327,0.0,0.0,88,0.00,,---,0.00,VWS V14.01,2013-01-20 10:19:00,
2013-01-20 02:25:00,37.7,34.5,30.27,NNW,327,0.0,0.0,88,0.00,,---,0.00,VWS V14.01,2013-01-20 10:25:00,
2013-01-20 02:30:00,37.6,34.4,30.27,NNW,327,0.0,0.0,88,0.00,,---,0.00,VWS V14.01,2013-01-20 10:30:00,
2013-01-20 02:35:00,37.5,34.3,30.27,NNW,328,0.0,0.0,88,0.00,,---,0.00,VWS V14.01,2013-01-20 10:35:00,
2013-01-20 02:41:00,37.3,34.1,30.27,NNW,327,0.0,0.0,88,0.00,,---,0.00,VWS V14.01,2013-01-20 10:41:00,
2013-01-20 02:46:00,37.2,34.0,30.28,NNW,328,0.0,0.0,88,0.00,,---,0.00,VWS V14.01,2013-01-20 10:46:00,
2013-01-20 02:52:00,37.1,33.9,30.27,NNW,328,0.0,0.0,88,0.00,,---,0.00,VWS V14.01,2013-01-20 10:52:00,
2013-01-20 02:58:00,36.9,33.7,30.27,NNW,328,0.0,0.0,88,0.00,,---,0.00,VWS V14.01,2013-01-20 10:58:00,
2013-01-20 03:03:00,36.7,33.5,30.27,NNW,327,0.0,0.0,88,0.00,,---,0.00,VWS V14.01,2013-01-20 11:03:00,
2013-01-20 03:09:00,36.6,33.4,30.27,NNW,328,0.0,0.0,88,0.00,,---,0.00,VWS V14.01,2013-01-20 11:09:00,
2013-01-20 03:14:00,36.8,34.4,30.27,NNW,327,0.0,0.0,91,0.00,,---,0.00,VWS V14.01,2013-01-20 11:14:00,
2013-01-20 03:20:00,36.8,34.2,30.27,NNW,328,0.0,0.0,90,0.00,,---,0.00,VWS V14.01,2013-01-20 11:20:00,
2013-01-20 03:25:00,36.5,33.6,30.27,NNW,327,0.0,0.0,89,0.00,,---,0.00,VWS V14.01,2013-01-20 11:25:00,
2013-01-20 03:30:00,36.5,33.8,30.27,NNW,328,0.0,0.0,90,0.00,,---,0.00,VWS V14.01,2013-01-20 11:30:00,
2013-01-20 03:35:00,36.6,34.2,30.27,NNW,327,0.0,0.0,91,0.00,,---,0.00,VWS V14.01,2013-01-20 11:35:00,
2013-01-20 03:40:00,36.5,33.8,30.27,NNW,327,0.0,0.0,90,0.00,,---,0.00,VWS V14.01,2013-01-20 11:40:00,
2013-01-20 03:46:00,36.4,33.8,30.27,NNW,327,0.0,0.0,90,0.00,,---,0.00,VWS V14.01,2013-01-20 11:46:00,
2013-01-20 03:51:00,36.1,33.2,30.27,NNW,327,0.0,0.0,89,0.00,,---,0.00,VWS V14.01,2013-01-20 11:51:00,
2013-01-20 03:56:00,35.9,33.0,30.26,NNW,327,0.0,0.0,89,0.00,,---,0.00,VWS V14.01,2013-01-20 11:56:00,
2013-01-20 04:01:00,35.8,32.9,30.27,NNW,327,0.0,0.0,89,0.00,,---,0.00,VWS V14.01,2013-01-20 12:01:00,
2013-01-20 04:07:00,35.6,32.7,30.26,NNW,328,0.0,0.0,89,0.00,,---,0.00,VWS V14.01,2013-01-20 12:07:00,
2013-01-20 04:12:00,35.4,32.5,30.26,NNW,327,0.0,0.0,89,0.00,,---,0.00,VWS V14.01,2013-01-20 12:12:00,
2013-01-20 04:18:00,35.3,32.7,30.26,NNW,328,0.0,0.0,90,0.00,,---,0.00,VWS V14.01,2013-01-20 12:18:00,
2013-01-20 04:24:00,35.2,32.6,30.26,NNW,327,0.0,0.0,90,0.00,,---,0.00,VWS V14.01,2013-01-20 12:24:00,
2013-01-20 04:30:00,35.0,32.4,30.26,NNW,327,0.0,0.0,90,0.00,,---,0.00,VWS V14.01,2013-01-20 12:30:00,
2013-01-20 04:35:00,34.8,31.9,30.26,NNW,328,0.0,0.0,89,0.00,,---,0.00,VWS V14.01,2013-01-20 12:35:00,
2013-01-20 04:41:00,34.5,31.9,30.27,NNW,327,0.0,0.0,90,0.00,,---,0.00,VWS V14.01,2013-01-20 12:41:00,
2013-01-20 04:46:00,34.4,31.8,30.26,NNW,327,0.0,0.0,90,0.00,,---,0.00,VWS V14.01,2013-01-20 12:46:00,
2013-01-20 04:51:00,34.4,31.8,30.26,NNW,327,0.0,0.0,90,0.00,,---,0.00,VWS V14.01,2013-01-20 12:51:00,
2013-01-20 04:57:00,34.4,31.8,30.26,NNW,327,0.0,0.0,90,0.00,,---,0.00,VWS V14.01,2013-01-20 12:57:00,
2013-01-20 05:02:00,34.2,31.6,30.26,NNW,327,0.0,0.0,90,0.00,,---,0.00,VWS V14.01,2013-01-20 13:02:00,
2013-01-20 05:08:00,34.0,31.4,30.26,NNW,327,0.0,0.0,90,0.00,,---,0.00,VWS V14.01,2013-01-20 13:08:00,
2013-01-20 05:14:00,33.9,31.3,30.26,NNW,327,0.0,0.0,90,0.00,,---,0.00,VWS V14.01,2013-01-20 13:14:00,
2013-01-20 05:19:00,33.8,31.5,30.26,NNW,327,0.0,0.0,91,0.00,,---,0.00,VWS V14.01,2013-01-20 13:19:00,
2013-01-20 05:24:00,33.8,31.5,30.26,NNW,327,0.0,0.0,91,0.00,,---,0.00,VWS V14.01,2013-01-20 13:24:00,
2013-01-20 05:29:00,33.7,31.4,30.26,NNW,328,0.0,0.0,91,0.00,,---,0.00,VWS V14.01,2013-01-20 13:29:00,
2013-01-20 05:34:00,33.7,31.4,30.26,NNW,328,0.0,0.0,91,0.00,,---,0.00,VWS V14.01,2013-01-20 13:34:00,
2013-01-20 05:39:00,33.6,31.3,30.26,NNW,328,0.0,0.0,91,0.00,,---,0.00,VWS V14.01,2013-01-20 13:39:00,
2013-01-20 05:45:00,33.5,31.2,30.26,NNW,328,0.0,0.0,91,0.00,,---,0.00,VWS V14.01,2013-01-20 13:45:00,
2013-01-20 05:50:00,33.4,31.1,30.26,NNW,327,0.0,0.0,91,0.00,,---,0.00,VWS V14.01,2013-01-20 13:50:00,
2013-01-20 05:55:00,33.3,31.0,30.26,NNW,327,0.0,0.0,91,0.00,,---,0.00,VWS V14.01,2013-01-20 13:55:00,
2013-01-20 06:00:00,33.3,31.0,30.26,NNW,327,0.0,0.0,91,0.00,,---,0.00,VWS V14.01,2013-01-20 14:00:00,
2013-01-20 06:06:00,33.1,30.8,30.26,NNW,327,0.0,0.0,91,0.00,,---,0.00,VWS V14.01,2013-01-20 14:06:00,
2013-01-20 06:12:00,33.0,30.7,30.26,NNW,327,0.0,0.0,91,0.00,,---,0.00,VWS V14.01,2013-01-20 14:12:00,
2013-01-20 06:17:00,32.9,30.6,30.26,NNW,327,0.0,0.0,91,0.00,,---,0.00,VWS V14.01,2013-01-20 14:17:00,
2013-01-20 06:23:00,32.8,30.5,30.26,NNW,328,0.0,0.0,91,0.00,,---,0.00,VWS V14.01,2013-01-20 14:23:00,
2013-01-20 06:28:00,32.8,30.5,30.26,NNW,328,0.0,0.0,91,0.00,,---,0.00,VWS V14.01,2013-01-20 14:28:00,
2013-01-20 06:33:00,32.7,30.4,30.26,NNW,327,0.0,0.0,91,0.00,,---,0.00,VWS V14.01,2013-01-20 14:33:00,
2013-01-20 06:39:00,32.6,30.3,30.26,NNW,328,0.0,0.0,91,0.00,,---,0.00,VWS V14.01,2013-01-20 14:39:00,
2013-01-20 06:45:00,32.6,30.3,30.25,NNW,327,0.0,0.0,91,0.00,,---,0.00,VWS V14.01,2013-01-20 14:45:00,
2013-01-20 06:51:00,32.6,30.5,30.25,NNW,327,0.0,0.0,92,0.00,,---,0.00,VWS V14.01,2013-01-20 14:51:00,
2013-01-20 06:56:00,32.6,30.5,30.25,NNW,328,0.0,0.0,92,0.00,,---,0.00,VWS V14.01,2013-01-20 14:56:00,
2013-01-20 07:01:00,32.7,30.6,30.25,NNW,327,0.0,0.0,92,0.00,,---,0.00,VWS V14.01,2013-01-20 15:01:00,
2013-01-20 07:07:00,32.8,30.7,30.25,NNW,327,0.0,0.0,92,0.00,,---,0.00,VWS V14.01,2013-01-20 15:07:00,
2013-01-20 07:12:00,32.8,30.7,30.25,NNW,328,0.0,0.0,92,0.00,,---,0.00,VWS V14.01,2013-01-20 15:12:00,
2013-01-20 07:17:00,32.9,30.8,30.25,NNW,327,0.0,0.0,92,0.00,,---,0.00,VWS V14.01,2013-01-20 15:17:00,
2013-01-20 07:22:00,32.9,30.8,30.25,NNW,327,0.0,0.0,92,0.00,,---,0.00,VWS V14.01,2013-01-20 15:22:00,
2013-01-20 07:27:00,32.8,30.7,30.25,NNW,327,0.0,0.0,92,0.00,,---,0.00,VWS V14.01,2013-01-20 15:27:00,
2013-01-20 07:32:00,32.8,30.7,30.25,NNW,328,0.0,0.0,92,0.00,,---,0.00,VWS V14.01,2013-01-20 15:32:00,
2013-01-20 07:37:00,32.7,30.4,30.25,NNW,327,0.0,0.0,91,0.00,,---,0.00,VWS V14.01,2013-01-20 15:37:00,
2013-01-20 07:42:00,32.6,30.3,30.25,NNW,328,0.0,0.0,91,0.00,,---,0.00,VWS V14.01,2013-01-20 15:42:00,
2013-01-20 07:47:00,32.6,30.3,30.26,NNW,327,0.0,0.0,91,0.00,,---,0.00,VWS V14.01,2013-01-20 15:47:00,
2013-01-20 07:52:00,32.6,30.5,30.26,NNW,328,0.0,0.0,92,0.00,,---,0.00,VWS V14.01,2013-01-20 15:52:00,
2013-01-20 07:57:00,32.7,30.6,30.26,NNW,327,0.0,0.0,92,0.00,,---,0.00,VWS V14.01,2013-01-20 15:57:00,
2013-01-20 08:02:00,32.8,30.7,30.26,NNW,328,0.0,0.0,92,0.00,,---,0.00,VWS V14.01,2013-01-20 16:02:00,
2013-01-20 08:07:00,33.0,30.9,30.26,NNW,327,0.0,0.0,92,0.00,,---,0.00,VWS V14.01,2013-01-20 16:07:00,
2013-01-20 08:12:00,33.2,31.4,30.26,NNW,327,0.0,0.0,93,0.00,,---,0.00,VWS V14.01,2013-01-20 16:12:00,
2013-01-20 08:17:00,33.7,31.9,30.26,NNW,327,0.0,0.0,93,0.00,,---,0.00,VWS V14.01,2013-01-20 16:17:00,
2013-01-20 08:22:00,34.2,32.4,30.26,NNW,327,0.0,0.0,93,0.00,,---,0.00,VWS V14.01,2013-01-20 16:22:00,
2013-01-20 08:28:00,35.2,33.7,30.26,NNW,327,0.0,0.0,94,0.00,,---,0.00,VWS V14.01,2013-01-20 16:28:00,
2013-01-20 08:33:00,36.6,35.0,30.26,NNW,328,0.0,3.0,94,0.00,,---,0.00,VWS V14.01,2013-01-20 16:33:00,
2013-01-20 08:38:00,38.2,35.8,30.27,NNW,328,0.0,0.0,91,0.00,,---,0.00,VWS V14.01,2013-01-20 16:38:00,
2013-01-20 08:43:00,39.3,36.0,30.27,NNW,327,0.0,2.0,88,0.00,,---,0.00,VWS V14.01,2013-01-20 16:43:00,
2013-01-20 08:48:00,40.1,36.0,30.26,NNW,327,0.0,4.0,85,0.00,,---,0.00,VWS V14.01,2013-01-20 16:48:00,
2013-01-20 08:54:00,40.9,36.5,30.27,NNW,327,3.0,4.0,84,0.00,,---,0.00,VWS V14.01,2013-01-20 16:54:00,
2013-01-20 08:59:00,41.3,36.5,30.27,NW,326,0.0,0.0,83,0.00,,---,0.00,VWS V14.01,2013-01-20 16:59:00,
2013-01-20 09:04:00,41.9,36.8,30.27,NW,326,4.0,4.0,82,0.00,,---,0.00,VWS V14.01,2013-01-20 17:04:00,
2013-01-20 09:09:00,42.4,37.0,30.26,NW,326,0.0,0.0,81,0.00,,---,0.00,VWS V14.01,2013-01-20 17:09:00,
2013-01-20 09:15:00,42.8,37.1,30.27,NW,326,2.0,4.0,80,0.00,,---,0.00,VWS V14.01,2013-01-20 17:15:00,
2013-01-20 09:20:00,43.0,36.9,30.27,NW,326,0.0,0.0,79,0.00,,---,0.00,VWS V14.01,2013-01-20 17:20:00,
2013-01-20 09:25:00,43.2,37.1,30.27,NW,326,0.0,0.0,79,0.00,,---,0.00,VWS V14.01,2013-01-20 17:25:00,
2013-01-20 09:30:00,43.6,37.5,30.27,NW,326,3.0,3.0,79,0.00,,---,0.00,VWS V14.01,2013-01-20 17:30:00,
2013-01-20 09:36:00,43.8,37.4,30.27,NNW,327,4.0,5.0,78,0.00,,---,0.00,VWS V14.01,2013-01-20 17:36:00,
2013-01-20 09:42:00,44.0,37.9,30.28,NW,323,4.0,5.0,79,0.00,,---,0.00,VWS V14.01,2013-01-20 17:42:00,
2013-01-20 09:47:00,44.2,37.8,30.28,NW,322,0.0,1.0,78,0.00,,---,0.00,VWS V14.01,2013-01-20 17:47:00,
2013-01-20 09:52:00,44.6,38.2,30.28,NW,322,0.0,0.0,78,0.00,,---,0.00,VWS V14.01,2013-01-20 17:52:00,
2013-01-20 09:57:00,45.0,37.9,30.28,NW,322,0.0,3.0,76,0.00,,---,0.00,VWS V14.01,2013-01-20 17:57:00,
2013-01-20 10:03:00,45.1,37.7,30.28,NW,322,0.0,4.0,75,0.00,,---,0.00,VWS V14.01,2013-01-20 18:03:00,
2013-01-20 10:08:00,45.2,37.8,30.28,NW,320,3.0,5.0,75,0.00,,---,0.00,VWS V14.01,2013-01-20 18:08:00,
2013-01-20 10:14:00,45.7,37.5,30.28,NW,320,0.0,4.0,73,0.00,,---,0.00,VWS V14.01,2013-01-20 18:14:00,
2013-01-20 10:19:00,46.1,37.9,30.28,NW,320,0.0,0.0,73,0.00,,---,0.00,VWS V14.01,2013-01-20 18:19:00,
2013-01-20 10:24:00,46.4,37.9,30.27,NW,319,1.0,1.0,72,0.00,,---,0.00,VWS V14.01,2013-01-20 18:24:00,
2013-01-20 10:29:00,46.8,37.5,30.27,NW,319,0.0,3.0,70,0.00,,---,0.00,VWS V14.01,2013-01-20 18:29:00,
2013-01-20 10:35:00,47.1,38.2,30.27,NW,319,4.0,4.0,71,0.00,,---,0.00,VWS V14.01,2013-01-20 18:35:00,
2013-01-20 10:40:00,47.5,38.2,30.27,NW,318,0.0,4.0,70,0.00,,---,0.00,VWS V14.01,2013-01-20 18:40:00,
2013-01-20 10:45:00,47.9,38.2,30.27,NW,318,4.0,4.0,69,0.00,,---,0.00,VWS V14.01,2013-01-20 18:45:00,
2013-01-20 10:51:00,48.4,38.3,30.27,NW,319,0.0,0.0,68,0.00,,---,0.00,VWS V14.01,2013-01-20 18:51:00,
2013-01-20 10:56:00,48.9,38.4,30.27,NW,319,0.0,3.0,67,0.00,,---,0.00,VWS V14.01,2013-01-20 18:56:00,
2013-01-20 11:01:00,49.5,38.2,30.27,NW,319,0.0,3.0,65,0.00,,---,0.00,VWS V14.01,2013-01-20 19:01:00,
2013-01-20 11:06:00,49.9,38.2,30.26,NW,321,0.0,0.0,64,0.00,,---,0.00,VWS V14.01,2013-01-20 19:06:00,
2013-01-20 11:11:00,50.3,38.6,30.26,NW,321,0.0,3.0,64,0.00,,---,0.00,VWS V14.01,2013-01-20 19:11:00,
2013-01-20 11:16:00,50.8,38.3,30.26,NW,321,2.0,5.0,62,0.00,,---,0.00,VWS V14.01,2013-01-20 19:16:00,
2013-01-20 11:21:00,51.2,38.2,30.26,NW,323,0.0,1.0,61,0.00,,---,0.00,VWS V14.01,2013-01-20 19:21:00,
2013-01-20 11:26:00,51.5,38.5,30.26,NW,323,0.0,0.0,61,0.00,,---,0.00,VWS V14.01,2013-01-20 19:26:00,
2013-01-20 11:31:00,51.9,38.5,30.25,NW,317,2.0,3.0,60,0.00,,---,0.00,VWS V14.01,2013-01-20 19:31:00,
2013-01-20 11:37:00,52.4,39.4,30.25,NW,321,4.0,4.0,61,0.00,,---,0.00,VWS V14.01,2013-01-20 19:37:00,
2013-01-20 11:42:00,52.8,39.3,30.25,NW,319,0.0,4.0,60,0.00,,---,0.00,VWS V14.01,2013-01-20 19:42:00,
2013-01-20 11:47:00,53.3,40.2,30.24,NW,321,1.0,1.0,61,0.00,,---,0.00,VWS V14.01,2013-01-20 19:47:00,
2013-01-20 11:52:00,53.8,39.8,30.25,NW,323,0.0,4.0,59,0.00,,---,0.00,VWS V14.01,2013-01-20 19:52:00,
2013-01-20 11:58:00,54.3,39.8,30.24,NW,323,0.0,2.0,58,0.00,,---,0.00,VWS V14.01,2013-01-20 19:58:00,
2013-01-20 12:03:00,54.5,39.6,30.24,NW,317,0.0,6.0,57,0.00,,---,0.00,VWS V14.01,2013-01-20 20:03:00,
2013-01-20 12:08:00,54.8,38.0,30.24,NW,313,3.0,5.0,53,0.00,,---,0.00,VWS V14.01,2013-01-20 20:08:00,
2013-01-20 12:14:00,55.0,38.2,30.24,NW,309,0.0,0.0,53,0.00,,---,0.00,VWS V14.01,2013-01-20 20:14:00,
2013-01-20 12:19:00,55.2,36.9,30.23,NW,305,3.0,5.0,50,0.00,,---,0.00,VWS V14.01,2013-01-20 20:19:00,
2013-01-20 12:24:00,55.4,37.1,30.23,NW,323,3.0,7.0,50,0.00,,---,0.00,VWS V14.01,2013-01-20 20:24:00,
2013-01-20 12:30:00,55.7,36.3,30.23,NNW,338,5.0,6.0,48,0.00,,---,0.00,VWS V14.01,2013-01-20 20:30:00,
2013-01-20 12:35:00,55.9,36.5,30.22,NNW,338,0.0,3.0,48,0.00,,---,0.00,VWS V14.01,2013-01-20 20:35:00,
2013-01-20 12:40:00,55.9,36.5,30.22,NNW,328,0.0,0.0,48,0.00,,---,0.00,VWS V14.01,2013-01-20 20:40:00,
2013-01-20 12:46:00,56.1,36.7,30.22,NW,319,1.0,2.0,48,0.00,,---,0.00,VWS V14.01,2013-01-20 20:46:00,
2013-01-20 12:51:00,56.6,37.2,30.21,WNW,291,1.0,5.0,48,0.00,,---,0.00,VWS V14.01,2013-01-20 20:51:00,
2013-01-20 12:56:00,56.9,36.9,30.21,WNW,297,4.0,5.0,47,0.00,,---,0.00,VWS V14.01,2013-01-20 20:56:00,
2013-01-20 13:01:00,57.1,37.6,30.20,NW,310,5.0,5.0,48,0.00,,---,0.00,VWS V14.01,2013-01-20 21:01:00,
2013-01-20 13:06:00,57.2,37.7,30.20,NW,315,4.0,7.0,48,0.00,,---,0.00,VWS V14.01,2013-01-20 21:06:00,
2013-01-20 13:11:00,57.3,37.3,30.20,NW,314,1.0,4.0,47,0.00,,---,0.00,VWS V14.01,2013-01-20 21:11:00,
2013-01-20 13:17:00,57.3,36.7,30.20,NW,318,0.0,4.0,46,0.00,,---,0.00,VWS V14.01,2013-01-20 21:17:00,
2013-01-20 13:22:00,57.4,37.9,30.20,NW,313,0.0,1.0,48,0.00,,---,0.00,VWS V14.01,2013-01-20 21:22:00,
2013-01-20 13:27:00,57.6,37.5,30.19,NW,317,0.0,0.0,47,0.00,,---,0.00,VWS V14.01,2013-01-20 21:27:00,
2013-01-20 13:32:00,57.9,37.3,30.19,NW,313,0.0,4.0,46,0.00,,---,0.00,VWS V14.01,2013-01-20 21:32:00,
2013-01-20 13:38:00,58.1,37.5,30.19,NW,314,0.0,0.0,46,0.00,,---,0.00,VWS V14.01,2013-01-20 21:38:00,
2013-01-20 13:43:00,58.6,37.3,30.18,WNW,288,1.0,5.0,45,0.00,,---,0.00,VWS V14.01,2013-01-20 21:43:00,
2013-01-20 13:48:00,58.6,36.8,30.18,WNW,288,0.0,4.0,44,0.00,,---,0.00,VWS V14.01,2013-01-20 21:48:00,
2013-01-20 13:53:00,58.7,36.9,30.18,WNW,292,0.0,0.0,44,0.00,,---,0.00,VWS V14.01,2013-01-20 21:53:00,
2013-01-20 13:59:00,59.0,38.3,30.18,WNW,296,0.0,4.0,46,0.00,,---,0.00,VWS V14.01,2013-01-20 21:59:00,
2013-01-20 14:05:00,59.0,36.6,30.18,WNW,297,1.0,1.0,43,0.00,,---,0.00,VWS V14.01,2013-01-20 22:05:00,
2013-01-20 14:10:00,59.2,37.3,30.18,WNW,302,0.0,2.0,44,0.00,,---,0.00,VWS V14.01,2013-01-20 22:10:00,
2013-01-20 14:15:00,59.6,36.5,30.18,NW,313,0.0,5.0,42,0.00,,---,0.00,VWS V14.01,2013-01-20 22:15:00,
2013-01-20 14:21:00,59.6,37.1,30.17,NNW,328,0.0,1.0,43,0.00,,---,0.00,VWS V14.01,2013-01-20 22:21:00,
2013-01-20 14:27:00,60.0,38.0,30.17,NW,325,0.0,0.0,44,0.00,,---,0.00,VWS V14.01,2013-01-20 22:27:00,
2013-01-20 14:33:00,60.3,38.9,30.17,NW,325,0.0,0.0,45,0.00,,---,0.00,VWS V14.01,2013-01-20 22:33:00,
2013-01-20 14:38:00,60.5,38.5,30.17,NW,323,0.0,1.0,44,0.00,,---,0.00,VWS V14.01,2013-01-20 22:38:00,
2013-01-20 14:43:00,60.7,36.9,30.17,NW,317,5.0,6.0,41,0.00,,---,0.00,VWS V14.01,2013-01-20 22:43:00,
2013-01-20 14:48:00,60.7,36.9,30.17,NW,316,0.0,1.0,41,0.00,,---,0.00,VWS V14.01,2013-01-20 22:48:00,
2013-01-20 14:53:00,61.0,36.5,30.17,NW,315,0.0,0.0,40,0.00,,---,0.00,VWS V14.01,2013-01-20 22:53:00,
2013-01-20 14:58:00,61.1,38.5,30.17,NW,315,0.0,0.0,43,0.00,,---,0.00,VWS V14.01,2013-01-20 22:58:00,
2013-01-20 15:03:00,61.3,38.6,30.17,NW,315,0.0,0.0,43,0.00,,---,0.00,VWS V14.01,2013-01-20 23:03:00,
2013-01-20 15:09:00,61.4,39.3,30.17,NW,315,0.0,0.0,44,0.00,,---,0.00,VWS V14.01,2013-01-20 23:09:00,
2013-01-20 15:14:00,61.5,40.0,30.16,NW,315,0.0,1.0,45,0.00,,---,0.00,VWS V14.01,2013-01-20 23:14:00,
2013-01-20 15:19:00,61.4,39.9,30.16,NW,313,0.0,0.0,45,0.00,,---,0.00,VWS V14.01,2013-01-20 23:19:00,
2013-01-20 15:24:00,61.6,40.6,30.16,NW,313,0.0,0.0,46,0.00,,---,0.00,VWS V14.01,2013-01-20 23:24:00,
2013-01-20 15:29:00,61.6,39.5,30.16,NW,313,0.0,0.0,44,0.00,,---,0.00,VWS V14.01,2013-01-20 23:29:00,
2013-01-20 15:35:00,61.3,39.2,30.16,NW,313,0.0,1.0,44,0.00,,---,0.00,VWS V14.01,2013-01-20 23:35:00,
2013-01-20 15:40:00,61.2,39.7,30.16,NW,313,0.0,0.0,45,0.00,,---,0.00,VWS V14.01,2013-01-20 23:40:00,
2013-01-20 15:45:00,60.8,39.9,30.16,NW,313,0.0,1.0,46,0.00,,---,0.00,VWS V14.01,2013-01-20 23:45:00,
2013-01-20 15:50:00,60.6,39.7,30.16,NW,313,0.0,0.0,46,0.00,,---,0.00,VWS V14.01,2013-01-20 23:50:00,
2013-01-20 15:56:00,60.5,39.6,30.16,NW,313,0.0,0.0,46,0.00,,---,0.00,VWS V14.01,2013-01-20 23:56:00,
2013-01-20 16:01:00,60.6,39.7,30.16,NW,313,0.0,0.0,46,0.00,,---,0.00,VWS V14.01,2013-01-21 00:01:00,
2013-01-20 16:06:00,60.5,40.2,30.16,NW,313,0.0,0.0,47,0.00,,---,0.00,VWS V14.01,2013-01-21 00:06:00,
2013-01-20 16:11:00,60.1,39.3,30.16,NW,313,0.0,0.0,46,0.00,,---,0.00,VWS V14.01,2013-01-21 00:11:00,
2013-01-20 16:17:00,59.6,38.2,30.16,NW,313,0.0,0.0,45,0.00,,---,0.00,VWS V14.01,2013-01-21 00:17:00,
2013-01-20 16:23:00,59.2,37.9,30.16,NW,313,0.0,0.0,45,0.00,,---,0.00,VWS V14.01,2013-01-21 00:23:00,
2013-01-20 16:28:00,59.0,37.7,30.16,NW,313,0.0,0.0,45,0.00,,---,0.00,VWS V14.01,2013-01-21 00:28:00,
2013-01-20 16:33:00,58.9,37.0,30.17,NW,313,0.0,0.0,44,0.00,,---,0.00,VWS V14.01,2013-01-21 00:33:00,
2013-01-20 16:38:00,58.6,37.3,30.17,NW,313,0.0,0.0,45,0.00,,---,0.00,VWS V14.01,2013-01-21 00:38:00,
2013-01-20 16:43:00,58.3,38.2,30.17,NW,307,0.0,1.0,47,0.00,,---,0.00,VWS V14.01,2013-01-21 00:43:00,
2013-01-20 16:48:00,58.0,37.9,30.17,NW,306,0.0,0.0,47,0.00,,---,0.00,VWS V14.01,2013-01-21 00:48:00,
2013-01-20 16:53:00,57.7,37.6,30.17,NW,306,0.0,0.0,47,0.00,,---,0.00,VWS V14.01,2013-01-21 00:53:00,
2013-01-20 16:58:00,57.4,38.4,30.17,NW,306,0.0,0.0,49,0.00,,---,0.00,VWS V14.01,2013-01-21 00:58:00,
2013-01-20 17:04:00,57.0,38.0,30.17,NW,306,0.0,0.0,49,0.00,,---,0.00,VWS V14.01,2013-01-21 01:04:00,
2013-01-20 17:09:00,56.6,38.2,30.17,NW,306,0.0,0.0,50,0.00,,---,0.00,VWS V14.01,2013-01-21 01:09:00,
2013-01-20 17:15:00,56.1,38.7,30.18,NW,306,0.0,0.0,52,0.00,,---,0.00,VWS V14.01,2013-01-21 01:15:00,
2013-01-20 17:20:00,55.6,37.8,30.18,NW,306,0.0,0.0,51,0.00,,---,0.00,VWS V14.01,2013-01-21 01:20:00,
2013-01-20 17:26:00,54.9,37.6,30.18,NW,306,0.0,0.0,52,0.00,,---,0.00,VWS V14.01,2013-01-21 01:26:00,
2013-01-20 17:31:00,54.3,38.0,30.18,NW,306,0.0,0.0,54,0.00,,---,0.00,VWS V14.01,2013-01-21 01:31:00,
2013-01-20 17:37:00,53.6,38.3,30.18,NW,306,0.0,0.0,56,0.00,,---,0.00,VWS V14.01,2013-01-21 01:37:00,
2013-01-20 17:42:00,53.0,37.7,30.18,NW,306,0.0,0.0,56,0.00,,---,0.00,VWS V14.01,2013-01-21 01:42:00,
2013-01-20 17:49:00,52.2,37.9,30.18,NW,306,0.0,0.0,58,0.00,,---,0.00,VWS V14.01,2013-01-21 01:49:00,
2013-01-20 17:54:00,51.7,37.8,30.18,NW,306,0.0,0.0,59,0.00,,---,0.00,VWS V14.01,2013-01-21 01:54:00,
2013-01-20 18:00:00,51.1,37.3,30.18,NW,306,0.0,0.0,59,0.00,,---,0.00,VWS V14.01,2013-01-21 02:00:00,
2013-01-20 18:05:00,50.6,37.7,30.18,NW,306,0.0,0.0,61,0.00,,---,0.00,VWS V14.01,2013-01-21 02:05:00,
2013-01-20 18:11:00,50.1,37.2,30.19,NW,306,0.0,0.0,61,0.00,,---,0.00,VWS V14.01,2013-01-21 02:11:00,
2013-01-20 18:16:00,49.7,37.6,30.18,NW,306,0.0,0.0,63,0.00,,---,0.00,VWS V14.01,2013-01-21 02:16:00,
2013-01-20 18:21:00,49.4,36.9,30.18,NW,306,0.0,0.0,62,0.00,,---,0.00,VWS V14.01,2013-01-21 02:21:00,
2013-01-20 18:26:00,49.1,38.2,30.18,NW,306,0.0,0.0,66,0.00,,---,0.00,VWS V14.01,2013-01-21 02:26:00,
2013-01-20 18:32:00,48.7,37.1,30.18,NW,306,0.0,0.0,64,0.00,,---,0.00,VWS V14.01,2013-01-21 02:32:00,
2013-01-20 18:37:00,48.4,36.8,30.19,NW,306,0.0,0.0,64,0.00,,---,0.00,VWS V14.01,2013-01-21 02:37:00,
2013-01-20 18:43:00,48.0,37.2,30.19,NW,306,0.0,0.0,66,0.00,,---,0.00,VWS V14.01,2013-01-21 02:43:00,
2013-01-20 18:48:00,47.8,37.0,30.19,NW,306,0.0,0.0,66,0.00,,---,0.00,VWS V14.01,2013-01-21 02:48:00,
2013-01-20 18:54:00,47.5,37.1,30.19,NW,306,0.0,0.0,67,0.00,,---,0.00,VWS V14.01,2013-01-21 02:54:00,
2013-01-20 19:00:00,47.3,38.0,30.19,NW,306,0.0,0.0,70,0.00,,---,0.00,VWS V14.01,2013-01-21 03:00:00,
2013-01-20 19:05:00,47.0,37.0,30.19,NW,306,0.0,0.0,68,0.00,,---,0.00,VWS V14.01,2013-01-21 03:05:00,
2013-01-20 19:10:00,46.9,37.6,30.19,NW,306,0.0,0.0,70,0.00,,---,0.00,VWS V14.01,2013-01-21 03:10:00,
2013-01-20 19:15:00,46.7,37.5,30.19,NW,306,0.0,0.0,70,0.00,,---,0.00,VWS V14.01,2013-01-21 03:15:00,
2013-01-20 19:20:00,46.5,36.5,30.19,NW,306,0.0,0.0,68,0.00,,---,0.00,VWS V14.01,2013-01-21 03:20:00,
2013-01-20 19:25:00,46.4,36.8,30.19,NW,306,0.0,0.0,69,0.00,,---,0.00,VWS V14.01,2013-01-21 03:25:00,
2013-01-20 19:31:00,46.2,38.0,30.20,NW,306,0.0,0.0,73,0.00,,---,0.00,VWS V14.01,2013-01-21 03:31:00,
2013-01-20 19:37:00,46.0,36.8,30.20,NW,306,0.0,0.0,70,0.00,,---,0.00,VWS V14.01,2013-01-21 03:37:00,
2013-01-20 19:42:00,45.8,38.0,30.20,NW,306,0.0,0.0,74,0.00,,---,0.00,VWS V14.01,2013-01-21 03:42:00,
2013-01-20 19:48:00,45.6,37.1,30.20,NW,306,0.0,0.0,72,0.00,,---,0.00,VWS V14.01,2013-01-21 03:48:00,
2013-01-20 19:53:00,45.4,36.9,30.20,NW,306,0.0,0.0,72,0.00,,---,0.00,VWS V14.01,2013-01-21 03:53:00,
2013-01-20 19:59:00,45.1,37.0,30.20,NW,306,0.0,0.0,73,0.00,,---,0.00,VWS V14.01,2013-01-21 03:59:00,
2013-01-20 20:05:00,45.0,36.5,30.20,NW,306,0.0,0.0,72,0.00,,---,0.00,VWS V14.01,2013-01-21 04:05:00,
2013-01-20 20:10:00,44.7,36.2,30.20,NW,306,0.0,0.0,72,0.00,,---,0.00,VWS V14.01,2013-01-21 04:10:00,
2013-01-20 20:15:00,44.5,36.7,30.20,NW,306,0.0,0.0,74,0.00,,---,0.00,VWS V14.01,2013-01-21 04:15:00,
2013-01-20 20:21:00,44.3,36.5,30.20,NW,306,0.0,0.0,74,0.00,,---,0.00,VWS V14.01,2013-01-21 04:21:00,
2013-01-20 20:27:00,44.2,36.8,30.19,NW,306,0.0,0.0,75,0.00,,---,0.00,VWS V14.01,2013-01-21 04:27:00,
2013-01-20 20:32:00,44.1,36.7,30.20,NW,306,0.0,0.0,75,0.00,,---,0.00,VWS V14.01,2013-01-21 04:32:00,
2013-01-20 20:38:00,44.0,36.3,30.20,NW,306,0.0,0.0,74,0.00,,---,0.00,VWS V14.01,2013-01-21 04:38:00,
2013-01-20 20:43:00,43.9,36.5,30.20,NW,306,0.0,0.0,75,0.00,,---,0.00,VWS V14.01,2013-01-21 04:43:00,
2013-01-20 20:48:00,43.9,35.8,30.20,NW,306,2.0,3.0,73,0.00,,---,0.00,VWS V14.01,2013-01-21 04:48:00,
2013-01-20 20:53:00,43.9,35.8,30.20,NW,313,3.0,3.0,73,0.00,,---,0.00,VWS V14.01,2013-01-21 04:53:00,
2013-01-20 20:58:00,44.0,35.6,30.20,NW,314,1.0,3.0,72,0.00,,---,0.00,VWS V14.01,2013-01-21 04:58:00,
2013-01-20 21:03:00,44.3,35.9,30.20,NW,320,1.0,3.0,72,0.00,,---,0.00,VWS V14.01,2013-01-21 05:03:00,
2013-01-20 21:04:00,44.3,35.9,30.20,NW,321,3.0,3.0,72,0.00,,---,0.00,VWS V14.01,2013-01-21 05:04:00,
2013-01-20 21:05:00,44.4,36.0,30.20,NW,321,3.0,3.0,72,0.00,,---,0.00,VWS V14.01,2013-01-21 05:05:00,
2013-01-20 21:06:00,44.5,35.7,30.20,NW,321,2.0,3.0,71,0.00,,---,0.00,VWS V14.01,2013-01-21 05:06:00,
2013-01-20 21:11:00,44.7,35.9,30.20,NW,324,0.0,1.0,71,0.00,,---,0.00,VWS V14.01,2013-01-21 05:11:00,
2013-01-20 21:16:00,44.8,36.0,30.21,NW,324,0.0,0.0,71,0.00,,---,0.00,VWS V14.01,2013-01-21 05:16:00,
2013-01-20 21:21:00,44.7,35.9,30.21,NW,324,0.0,0.0,71,0.00,,---,0.00,VWS V14.01,2013-01-21 05:21:00,
2013-01-20 21:27:00,44.5,36.0,30.21,NW,324,0.0,0.0,72,0.00,,---,0.00,VWS V14.01,2013-01-21 05:27:00,
2013-01-20 21:32:00,44.3,35.9,30.21,NW,324,0.0,0.0,72,0.00,,---,0.00,VWS V14.01,2013-01-21 05:32:00,
2013-01-20 21:37:00,44.1,35.7,30.21,NW,325,2.0,3.0,72,0.00,,---,0.00,VWS V14.01,2013-01-21 05:37:00,
2013-01-20 21:42:00,44.1,36.0,30.21,NW,325,1.0,2.0,73,0.00,,---,0.00,VWS V14.01,2013-01-21 05:42:00,
2013-01-20 21:47:00,44.1,36.0,30.21,NW,325,0.0,0.0,73,0.00,,---,0.00,VWS V14.01,2013-01-21 05:47:00,
2013-01-20 21:52:00,44.0,36.3,30.21,NNW,327,1.0,3.0,74,0.00,,---,0.00,VWS V14.01,2013-01-21 05:52:00,
2013-01-20 21:57:00,44.0,36.3,30.21,NW,326,0.0,0.0,74,0.00,,---,0.00,VWS V14.01,2013-01-21 05:57:00,
2013-01-20 22:02:00,43.8,36.4,30.21,NW,326,0.0,0.0,75,0.00,,---,0.00,VWS V14.01,2013-01-21 06:02:00,
2013-01-20 22:07:00,43.7,36.6,30.22,NNW,328,3.0,3.0,76,0.00,,---,0.00,VWS V14.01,2013-01-21 06:07:00,
2013-01-20 22:12:00,43.6,36.5,30.21,NNW,335,2.0,3.0,76,0.00,,---,0.00,VWS V14.01,2013-01-21 06:12:00,
2013-01-20 22:18:00,43.6,36.9,30.21,NNW,342,0.0,0.0,77,0.00,,---,0.00,VWS V14.01,2013-01-21 06:18:00,
2013-01-20 22:24:00,43.6,36.9,30.21,NNW,348,2.0,3.0,77,0.00,,---,0.00,VWS V14.01,2013-01-21 06:24:00,
2013-01-20 22:30:00,43.7,37.0,30.21,North,350,0.0,0.0,77,0.00,,---,0.00,VWS V14.01,2013-01-21 06:30:00,
2013-01-20 22:35:00,43.7,37.0,30.21,North,350,0.0,0.0,77,0.00,,---,0.00,VWS V14.01,2013-01-21 06:35:00,
2013-01-20 22:41:00,43.5,36.8,30.21,North,350,0.0,0.0,77,0.00,,---,0.00,VWS V14.01,2013-01-21 06:41:00,
2013-01-20 22:46:00,43.3,36.6,30.21,North,350,0.0,0.0,77,0.00,,---,0.00,VWS V14.01,2013-01-21 06:46:00,
2013-01-20 22:51:00,43.1,36.4,30.22,North,350,0.0,0.0,77,0.00,,---,0.00,VWS V14.01,2013-01-21 06:51:00,
2013-01-20 22:56:00,42.9,36.2,30.21,North,350,0.0,0.0,77,0.00,,---,0.00,VWS V14.01,2013-01-21 06:56:00,
2013-01-20 23:02:00,42.6,36.2,30.21,North,350,0.0,0.0,78,0.00,,---,0.00,VWS V14.01,2013-01-21 07:02:00,
2013-01-20 23:08:00,42.3,35.9,30.21,North,350,0.0,0.0,78,0.00,,---,0.00,VWS V14.01,2013-01-21 07:08:00,
2013-01-20 23:13:00,42.0,36.0,30.21,North,350,0.0,0.0,79,0.00,,---,0.00,VWS V14.01,2013-01-21 07:13:00,
2013-01-20 23:18:00,41.7,35.7,30.21,North,350,0.0,0.0,79,0.00,,---,0.00,VWS V14.01,2013-01-21 07:18:00,
2013-01-20 23:23:00,41.4,35.7,30.21,North,350,0.0,1.0,80,0.00,,---,0.00,VWS V14.01,2013-01-21 07:23:00,
2013-01-20 23:28:00,41.2,35.8,30.21,North,350,0.0,0.0,81,0.00,,---,0.00,VWS V14.01,2013-01-21 07:28:00,
2013-01-20 23:34:00,41.0,35.9,30.21,North,350,0.0,0.0,82,0.00,,---,0.00,VWS V14.01,2013-01-21 07:34:00,
2013-01-20 23:39:00,40.9,35.8,30.21,North,350,0.0,0.0,82,0.00,,---,0.00,VWS V14.01,2013-01-21 07:39:00,
2013-01-20 23:44:00,40.6,35.5,30.21,North,350,1.0,1.0,82,0.00,,---,0.00,VWS V14.01,2013-01-21 07:44:00,
2013-01-20 23:50:00,40.4,35.3,30.21,North,350,0.0,0.0,82,0.00,,---,0.00,VWS V14.01,2013-01-21 07:50:00,
2013-01-20 23:55:00,40.3,35.6,30.21,North,350,0.0,2.0,83,0.00,,---,0.00,VWS V14.01,2013-01-21 07:55:00,